Location: Trout Lake
(45.9980°N, 121.5270°W)
Time: 20:09:50
(UTC-08:00)

Meteor 1-5 Rocket - Pass Details

Date: 06 December 2023
Orbit: 788 x 915 km, 81.2° (Epoch: 22 February)

Event Time Altitude Azimuth Distance (km) Brightness Sun altitude
Rises 18:24:41 0° 348° (NNW) 3,437 7.4 -20.6°
Reaches altitude 10° 18:27:05 10° 348° (NNW) 2,515 6.7 -21.0°
Maximum altitude 18:32:50 85° 260° (W) 894 4.3 -22.0°
Drops below altitude 10° 18:38:43 10° 173° (S) 2,572 6.7 -23.0°
Sets 18:41:12 0° 173° (S) 3,519 7.5 -23.5°
